Theta_e
317 319 321 325 328 338 362 361 362 365 362 357 354 351 348 351 349 349 360 355 352 351 358 358 360 361 361 359 357 354 351 345 345 340 337 336 338 340 337 336 335 335 336
317 320 321 326 329 345 360 360 361 364 363 359 357 353 353 350 349 348 358 357 353 352 356 358 362 360 356 356 354 352 345 342 342 335 331 327 333 338 339 337 336 336 336
316 319 321 324 329 346 361 359 359 364 364 362 358 359 356 353 348 350 351 353 353 350 357 357 360 357 359 349 348 345 344 340 341 338 331 324 322 328 337 340 337 337 333
316 318 321 322 327 344 357 359 361 364 363 364 357 355 349 345 346 348 350 352 352 351 356 354 352 350 346 345 342 341 342 341 333 337 336 337 332 324 321 335 337 334 333
314 316 320 322 327 347 354 360 357 360 360 360 359 355 352 348 348 348 355 356 357 355 353 350 349 346 342 344 341 341 341 336 337 336 331 336 331 332 325 319 323 327 325
314 316 320 323 329 352 355 356 352 358 359 361 361 359 357 353 348 352 351 353 347 346 347 345 344 344 343 337 336 340 339 339 338 337 333 328 324 323 321 318 320 318 319
313 315 318 319 326 345 353 352 351 353 357 360 362 359 361 360 360 355 343 339 337 341 342 342 343 339 335 337 338 339 339 337 334 335 330 331 325 324 320 317 314 313 315
314 315 318 320 325 338 351 354 350 352 359 358 359 359 363 355 352 345 340 338 340 340 341 341 338 337 333 336 336 335 333 334 331 330 329 325 322 321 320 316 313 310 311
313 315 318 320 324 337 346 352 351 352 358 355 358 358 360 348 342 342 346 343 342 340 340 339 336 333 334 335 336 329 329 329 328 326 327 323 321 320 319 317 315 311 306
312 315 318 320 326 340 343 354 356 351 353 353 355 357 347 346 342 344 345 344 342 340 336 334 334 332 332 332 331 327 326 324 322 322 323 320 318 318 317 315 314 314 311
313 315 318 322 326 338 342 348 349 348 351 351 349 345 345 344 344 345 345 343 341 338 334 331 330 327 328 326 325 324 322 322 321 320 318 317 318 315 315 315 314 313 312
313 314 317 320 326 337 339 344 346 347 348 343 342 341 345 348 342 342 340 339 337 335 331 329 324 324 324 323 322 320 320 319 316 315 315 314 315 315 315 313 314 311 311
312 314 316 317 324 331 341 345 343 341 339 339 339 341 344 340 336 335 337 336 332 328 327 327 324 323 322 321 320 319 318 316 316 315 313 312 311 310 308 309 307 305 303
310 313 314 317 322 328 338 344 336 336 336 336 337 335 333 332 332 334 332 329 328 326 325 324 322 321 319 318 318 317 317 315 315 313 311 308 306 304 303 302 302 302 300
310 312 313 317 324 332 341 335 334 335 334 332 329 326 327 328 330 329 329 328 326 324 322 320 319 318 316 314 316 316 315 314 313 312 309 305 302 300 300 299 299 301 299
310 314 314 316 326 337 333 332 332 330 327 323 321 324 326 327 327 326 325 323 322 320 318 316 314 312 309 301 304 313 314 312 311 308 307 306 299 299 302 300 300 299 299
309 315 316 318 330 336 331 328 325 324 321 320 320 320 320 322 322 320 319 317 316 317 313 312 310 309 307 299 301 307 311 309 307 306 305 301 298 295 299 301 303 303 297
311 316 321 321 336 330 323 320 319 318 318 317 315 316 316 315 316 316 315 313 313 313 311 310 309 306 302 297 297 303 308 304 301 300 300 299 296 291 293 300 300 300 301
314 317 321 334 323 318 317 315 313 312 313 315 314 315 315 313 311 309 310 311 311 310 308 307 305 304 301 295 296 301 305 303 300 297 293 295 292 288 289 297 297 297 298
317 320 326 319 317 315 314 310 309 307 306 309 311 313 312 309 307 307 306 307 310 309 306 305 304 301 301 293 294 298 303 302 299 300 295 288 289 289 289 295 294 293 294
326 320 317 314 312 311 310 306 305 304 306 306 306 306 307 306 306 306 307 311 308 306 305 302 301 300 299 297 293 292 303 300 298 297 295 292 289 288 288 290 294 292 293
313 313 310 308 309 309 307 304 302 304 304 303 303 304 303 303 304 305 307 307 307 303 301 299 298 298 297 294 292 292 292 297 297 294 295 294 289 289 289 291 289 290 294
308 309 307 305 306 305 304 300 302 302 303 302 302 301 302 304 305 306 306 303 304 301 300 297 296 296 296 296 292 292 292 292 296 295 290 290 292 292 292 290 291 294 295
305 305 304 303 302 303 302 303 302 302 302 301 301 302 303 304 305 303 303 302 301 301 299 299 299 299 300 300 300 298 296 291 298 294 298 296 294 293 294 296 296 296 295
304 304 303 301 301 302 302 302 302 303 302 303 302 301 303 302 298 295 297 295 295 300 300 300 300 297 293 289 289 292 295 295 293 293 298 297 296 295 295 296 296 296 295
302 303 303 303 302 303 302 302 303 302 301 300 300 300 299 298 295 293 292 290 290 290 290 290 293 290 289 288 288 288 288 289 289 296 295 294 294 294 294 294 294 295 294
Wind_Speed
25 26 24 20 18 21 20 22 22 20 18 14 14 13 12 11 10 9 12 14 11 12 8 5 7 5 5 3 3 2 1 1 3 6 5 6 6 4 3 4 4 3 6
20 21 24 21 20 20 21 23 22 22 19 14 12 11 11 12 10 10 10 12 12 12 9 7 6 6 6 5 4 2 2 2 3 7 6 6 4 6 6 5 4 4 5
23 21 21 22 21 20 21 22 23 22 20 17 12 10 10 10 11 11 10 11 11 12 9 7 6 6 5 6 5 4 4 6 4 5 4 4 6 9 7 5 5 3 6
23 23 20 23 20 21 23 22 23 22 21 18 15 14 13 14 12 11 11 11 12 8 11 10 10 7 8 8 7 5 4 6 4 2 2 2 4 6 7 4 3 5 10
26 26 22 21 25 21 20 21 22 21 22 19 18 14 15 12 12 12 16 13 10 12 14 11 12 9 7 7 5 6 6 4 3 4 6 4 5 4 6 9 10 9 9
27 26 24 18 22 24 19 19 21 23 22 21 18 18 16 15 13 14 13 10 9 9 11 12 10 9 9 6 6 8 6 6 6 6 4 5 6 8 8 9 10 11 10
27 27 26 24 23 25 24 22 23 22 23 22 18 18 16 16 16 17 11 13 9 9 12 13 12 9 9 10 2 5 2 5 6 7 7 4 6 6 6 8 10 10 10
23 26 25 22 25 24 27 26 23 22 22 22 19 17 15 13 14 15 12 11 12 12 16 14 11 11 8 8 7 4 5 4 3 6 6 7 5 6 7 8 10 11 10
21 25 24 23 23 23 22 25 24 22 22 21 18 18 17 17 15 17 15 12 13 13 16 15 13 10 10 7 6 6 5 3 5 4 6 6 6 6 6 7 8 9 11
26 24 21 22 20 23 22 25 24 21 21 20 18 15 19 19 16 16 16 17 15 16 15 14 13 10 9 9 8 5 6 5 4 5 5 7 7 7 7 7 8 8 9
17 15 16 14 19 22 23 19 24 23 19 19 19 20 19 20 18 16 16 16 15 15 15 15 14 12 11 9 9 8 5 6 5 5 6 6 6 6 7 7 7 8 9
17 16 18 17 18 22 21 20 19 20 16 19 21 21 21 21 17 16 15 15 17 16 15 14 14 10 11 10 8 7 7 7 5 4 6 7 7 8 8 8 9 9 9
19 19 18 20 19 18 23 22 18 15 16 19 21 21 19 20 18 18 17 17 18 17 16 14 14 12 11 10 9 8 8 6 5 6 7 8 9 9 9 9 9 9 9
10 14 18 18 16 20 20 22 18 16 17 19 20 20 19 20 18 19 18 18 17 17 16 14 14 12 11 9 10 8 8 6 6 7 8 9 9 9 10 9 10 10 10
11 13 12 16 14 14 22 18 17 17 18 19 19 19 20 20 20 20 18 17 17 16 16 15 14 12 10 7 9 8 7 7 6 5 8 8 10 9 5 8 9 10 10
19 15 14 15 15 20 17 17 17 18 19 19 20 21 21 21 21 19 17 17 18 17 16 14 13 11 9 10 12 7 8 7 7 6 5 7 13 12 12 7 8 6 8
12 9 17 15 15 21 18 18 17 19 21 21 20 22 21 23 21 20 20 19 17 15 16 15 14 14 12 12 12 8 9 8 8 7 7 8 9 13 12 15 9 6 7
20 9 10 14 23 18 16 19 18 19 21 21 21 21 22 22 20 20 19 18 16 15 13 15 15 14 10 12 11 8 10 10 10 10 9 9 11 13 13 11 11 11 9
15 9 13 21 19 20 19 20 19 19 20 20 22 21 23 22 22 21 17 15 15 14 15 14 15 15 11 13 11 4 7 8 9 10 11 10 11 13 18 12 12 12 10
14 10 14 20 21 18 19 22 19 20 19 17 21 21 22 23 21 20 17 14 14 16 14 15 14 13 11 15 14 14 6 6 6 9 10 12 9 11 13 13 12 12 13
19 19 16 17 18 18 21 22 20 21 20 20 21 21 19 20 19 18 15 16 16 16 15 15 13 12 10 12 15 21 7 4 5 6 6 7 5 8 12 11 10 12 13
18 19 18 17 16 19 23 22 22 21 21 21 21 21 20 16 15 18 16 17 16 16 15 13 12 10 11 11 13 13 12 11 7 7 6 6 7 6 9 10 11 15 11
16 17 20 20 16 18 24 24 21 21 22 21 21 21 20 18 16 18 17 15 14 12 11 10 11 10 9 9 6 7 6 4 7 6 2 7 11 14 8 15 13 10 11
17 20 23 21 18 18 22 25 21 20 21 22 21 19 19 18 16 13 12 11 10 9 10 10 10 9 8 7 6 7 5 4 1 4 2 3 7 9 8 8 9 10 10
16 18 22 21 22 20 21 22 21 19 21 20 19 18 15 16 15 15 11 11 12 8 10 9 9 9 8 7 9 10 6 6 6 10 6 7 7 8 9 9 10 10 11
17 19 22 23 22 21 22 20 19 19 19 19 16 15 14 14 13 14 15 22 25 28 27 23 14 12 11 7 6 5 5 7 7 3 7 8 8 9 9 10 10 11 13
Wind_Direction
234 228 228 228 210 199 175 170 180 182 178 184 190 188 179 189 182 178 153 171 170 173 194 163 148 165 162 172 128 117 15 269 330 287 206 190 208 211 208 223 255 279 288
245 236 215 209 215 186 175 168 182 188 178 187 189 186 182 180 179 176 149 167 164 166 181 130 171 157 129 102 87 19 348 319 7 316 309 293 178 213 215 223 235 251 299
242 240 222 213 193 190 173 173 181 185 178 181 184 177 178 169 175 154 162 171 157 169 183 125 129 112 119 93 65 25 3 324 78 359 339 319 336 333 181 197 250 244 268
246 249 221 214 210 185 170 179 185 183 176 175 183 176 182 174 172 161 167 147 160 154 108 110 105 102 98 89 66 37 331 314 39 286 201 358 353 337 322 221 224 220 228
232 236 237 196 220 184 179 181 183 179 172 187 180 172 183 168 167 166 131 149 145 131 115 116 123 114 98 109 142 70 11 317 322 331 340 342 290 221 302 314 318 325 331
230 228 221 217 213 171 179 185 182 178 175 186 176 176 176 171 164 145 142 128 107 106 114 121 116 107 97 76 50 56 13 5 359 333 334 3 344 344 333 318 315 321 320
215 222 217 204 203 186 173 184 182 180 175 179 172 175 182 167 141 128 123 126 121 126 137 123 119 108 105 90 88 75 25 13 7 10 332 12 3 348 328 317 314 315 316
225 216 214 206 197 197 167 177 182 176 173 173 170 173 176 135 127 130 131 129 138 143 135 127 120 125 115 133 149 130 81 32 49 25 14 333 0 348 335 328 321 314 318
223 216 210 205 202 190 186 171 178 172 173 168 168 171 145 126 133 132 134 140 141 142 142 141 137 127 128 129 104 108 101 69 19 42 12 334 10 348 331 330 322 322 318
229 218 202 203 204 178 183 165 170 171 168 161 163 143 129 131 135 139 142 149 144 145 137 136 120 117 122 111 106 101 75 77 28 24 26 3 16 331 338 335 315 328 318
196 189 196 204 203 169 172 185 164 174 160 157 130 131 132 135 138 143 145 138 145 139 133 127 128 129 116 108 93 89 105 80 63 32 24 21 8 353 359 326 1 328 344
204 200 193 180 210 170 166 169 149 158 150 141 134 131 136 140 133 136 132 135 137 131 128 123 110 121 115 119 115 92 80 73 62 42 34 27 10 354 10 334 1 345 339
224 207 191 173 188 189 164 130 140 131 134 137 131 134 134 126 125 127 137 133 125 127 130 123 118 120 115 104 96 97 92 86 75 56 49 35 21 15 1 344 352 344 336
261 221 195 165 181 181 157 129 121 129 130 130 127 125 124 122 124 126 128 129 132 126 123 118 112 108 109 111 102 106 108 105 91 76 52 39 32 10 3 352 355 357 333
222 248 218 155 171 152 118 125 125 130 129 122 119 118 118 120 124 123 127 124 122 117 116 115 109 111 108 74 114 114 116 101 88 65 88 57 27 14 338 353 356 349 348
283 208 227 162 159 132 126 129 130 128 122 117 119 121 123 120 120 118 120 115 117 115 111 109 110 102 88 35 30 97 98 82 67 62 40 106 44 3 342 255 275 288 341
261 206 201 188 147 128 141 128 123 124 121 120 125 119 120 120 120 118 117 116 113 110 108 109 107 104 90 42 42 48 89 83 67 48 32 26 34 10 351 338 340 314 214
217 207 254 187 111 124 113 117 118 119 121 121 121 119 119 116 117 118 116 115 113 112 110 107 104 102 82 34 21 31 88 81 66 46 38 37 28 10 352 336 357 350 4
208 196 267 110 115 117 120 115 113 115 117 125 123 121 123 117 120 117 115 115 115 111 107 106 106 105 87 35 18 350 112 107 103 75 46 37 36 359 357 9 1 351 5
183 131 103 112 113 117 119 113 116 114 113 119 117 120 122 123 119 117 116 116 113 112 107 100 98 98 91 35 20 353 132 125 119 117 113 63 20 349 351 8 359 358 354
102 108 109 110 111 117 116 110 114 112 118 115 114 118 119 115 112 115 116 113 108 109 108 102 92 87 78 50 31 16 63 87 82 58 67 42 5 345 324 326 2 334 314
104 108 106 103 108 116 111 109 108 116 114 114 112 114 111 110 111 110 108 110 111 112 112 115 108 96 86 57 52 42 32 8 69 50 41 44 319 287 283 321 316 304 329
103 105 109 101 103 109 111 109 114 117 117 115 114 107 106 108 110 111 115 117 121 120 125 121 119 119 114 103 95 92 82 28 78 69 115 266 277 284 228 241 282 345 12
99 106 102 101 101 104 108 112 115 118 116 112 111 112 109 112 114 116 119 127 127 129 125 124 122 124 119 102 144 155 162 178 222 179 150 353 293 277 304 18 13 21 10
93 101 103 104 105 109 108 109 114 119 112 113 109 111 109 92 78 58 64 76 44 99 123 121 111 106 93 64 48 39 46 29 15 316 44 30 26 22 18 17 14 19 8
96 99 101 105 109 107 106 109 111 114 116 112 109 100 104 96 91 90 86 59 62 61 59 56 79 76 87 92 69 53 30 338 315 61 45 36 25 21 16 11 9 16 14